Regional Weather Roundup
Issued by NWS

Home | Current Version | Previous Version | Text Only | Print | Product List | Glossary On
Versions: 1 2 3 4 5 6 7 8 9 10 11 12 13 14 15 16 17 18 19 20 21 22 23 24 25 26 27 28 29 30 31 32 33 34 35 36 37 38 39 40 41 42 43 44 45 46 47 48 49 50
000
ASUS44 KMEG 040710
RWRTN
TENNESSEE HOURLY STATE WEATHER ROUNDUP
NATIONAL WEATHER SERVICE MEMPHIS TN
200 AM CDT SAT JUL 04 2015

TNZ002-004-019-021-049-052-054-088>092-040800-
WEST TENNESSEE

CITY           SKY/WX    TMP DP  RH WIND       PRES   REMARKS
MEMPHIS INTL   CLOUDY    73  70  88 SW5       29.91F
NWS MEMPHIS      N/A     73 N/A N/A MISG        N/A
JACKSON        PTCLDY    71  69  93 SW5       29.92R
DYERSBURG        N/A    N/A N/A N/A MISG        N/A
PARIS          CLOUDY    66  66 100 CALM      29.92R VSB 3/4
LEXINGTON      CLOUDY    72  70  94 SW3       29.91S
$$

TNZ008-025-027-028-033-062-065-066-040800-
NORTH MIDDLE TENNESSEE

CITY           SKY/WX    TMP DP  RH WIND       PRES   REMARKS
NASHVILLE      MOCLDY    70  69  97 S3        29.92F
CLARKSVILLE    CLOUDY    71  69  93 CALM      29.91S
SMYRNA         MOCLDY    71  69  93 CALM      29.93F
COOKEVILLE     CLOUDY    70  70 100 S3        29.95S
CROSSVILLE     CLOUDY    68  64  87 VRB5      29.99F
$$

TNZ061-075-076-078-094-096-097-040800-
SOUTH MIDDLE TENNESSEE

CITY           SKY/WX    TMP DP  RH WIND       PRES   REMARKS
FAYETTEVILLE   CLOUDY    68  66  94 SW6       29.97R
TULLAHOMA      CLOUDY    70  66  88 S3        29.97S
WINCHESTER     CLOUDY    70  66  88 S3        29.97R
MCMINNVILLE    CLOUDY    70  70 100 CALM      29.96F
COLUMBIA       CLOUDY    72  72 100 SW8       29.91F
SHELBYVILLE    CLOUDY    72  72 100 S3          N/A
$$

TNZ017-018-042-046-047-040800-
NORTHEAST TENNESSEE

CITY           SKY/WX    TMP DP  RH WIND       PRES   REMARKS
TRI CITIES     CLOUDY    69  65  86 SW12      29.96S
ELIZABETHTON   CLOUDY    70  63  78 W5        29.97S
$$

TNZ012-013-036-069-073-074-040800-
CENTRAL EAST TENNESSEE

CITY           SKY/WX    TMP DP  RH WIND       PRES   REMARKS
KNOXVILLE      PTCLDY    69  66  90 S10       29.95S
OAK RIDGE      CLOUDY    70  66  87 CALM      29.96F
GATLINBURG     MOSUNNY   70  63  78 SW7       29.96S
MORRISTOWN       N/A     70  64  83 SW6       29.97S
$$

TNZ083-085-099-040800-
SOUTHEAST TENNESSEE

CITY           SKY/WX    TMP DP  RH WIND       PRES   REMARKS
CHATTANOOGA    CLOUDY    70  68  93 CALM      29.97F
$$

SKY/WX REPORTED AS FAIR MEANS FEW OR NO CLOUDS BELOW
12 THOUSAND FEET.



USA.gov is the U.S. government's official web portal to all federal, state and local government web resources and services.